TimeAKST,TemperatureF,Dew PointF,Humidity,Sea Level PressureIn,VisibilityMPH,Wind Direction,Wind SpeedMPH,Gust SpeedMPH,PrecipitationIn,Events,Conditions,WindDirDegrees,DateUTC
12:24 AM,39.2,33.8,81,30.22,10.0,East,10.4,17.3,N/A,,Scattered Clouds,80,2013-01-01 09:24:00
12:52 AM,39.2,33.8,81,30.23,10.0,East,11.5,18.4,N/A,,Mostly Cloudy,80,2013-01-01 09:52:00
12:54 AM,39.0,34.0,82,30.24,10.0,East,10.4,19.6,N/A,,Mostly Cloudy,90,2013-01-01 09:54:00
1:54 AM,39.0,34.0,82,30.22,10.0,Variable,6.9,-,N/A,,Overcast,0,2013-01-01 10:54:00
2:22 AM,39.2,33.8,81,30.20,10.0,East,10.4,18.4,N/A,,Scattered Clouds,80,2013-01-01 11:22:00
3:33 AM,39.2,33.8,81,30.21,10.0,ENE,9.2,-,N/A,,Mostly Cloudy,70,2013-01-01 12:33:00
3:54 AM,39.0,33.1,79,30.23,10.0,SSE,6.9,-,N/A,,Overcast,150,2013-01-01 12:54:00
4:44 AM,37.4,33.8,87,30.17,10.0,East,8.1,-,N/A,,Scattered Clouds,80,2013-01-01 13:44:00
4:54 AM,39.0,33.1,79,30.18,10.0,East,8.1,-,N/A,,Mostly Cloudy,80,2013-01-01 13:54:00
5:54 AM,39.0,32.0,76,30.15,10.0,SE,10.4,-,N/A,,Overcast,130,2013-01-01 14:54:00
6:54 AM,37.9,32.0,79,30.12,10.0,SE,11.5,-,N/A,,Overcast,130,2013-01-01 15:54:00
7:54 AM,39.9,30.9,70,30.07,10.0,East,12.7,19.6,N/A,,Overcast,100,2013-01-01 16:54:00
8:54 AM,39.9,30.9,70,30.07,10.0,East,11.5,20.7,0.00,Rain,Light Rain,90,2013-01-01 17:54:00
9:54 AM,37.9,32.0,79,30.02,10.0,East,3.5,-,0.00,,Overcast,90,2013-01-01 18:54:00
10:54 AM,37.9,32.0,79,30.03,10.0,ENE,8.1,-,N/A,,Overcast,60,2013-01-01 19:54:00
11:14 AM,37.4,32.0,81,29.99,9.0,ENE,11.5,18.4,0.00,Rain,Light Rain,70,2013-01-01 20:14:00
11:44 AM,39.2,32.0,75,29.95,10.0,ENE,11.5,23.0,0.01,,Overcast,70,2013-01-01 20:44:00
11:54 AM,41.0,30.9,67,29.96,10.0,East,11.5,19.6,0.01,,Overcast,90,2013-01-01 20:54:00
12:54 PM,41.0,30.9,67,29.94,10.0,East,12.7,18.4,0.00,Rain,Light Rain,80,2013-01-01 21:54:00
1:22 PM,39.2,32.0,75,29.91,10.0,ENE,8.1,28.8,0.00,Rain,Light Rain,60,2013-01-01 22:22:00
1:45 PM,39.2,32.0,75,29.91,10.0,East,15.0,24.2,0.00,Rain,Light Rain,90,2013-01-01 22:45:00
1:54 PM,39.0,32.0,76,29.90,10.0,East,15.0,24.2,0.00,Rain,Light Rain,80,2013-01-01 22:54:00
2:54 PM,41.0,30.9,67,29.84,10.0,ENE,13.8,23.0,0.00,Rain,Light Rain,60,2013-01-01 23:54:00
3:54 PM,39.9,32.0,73,29.84,10.0,ESE,11.5,23.0,0.01,Rain,Light Rain,110,2013-01-02 00:54:00
4:47 PM,37.4,33.8,87,29.81,10.0,East,16.1,29.9,0.00,Rain,Light Rain,90,2013-01-02 01:47:00
4:54 PM,37.0,33.1,86,29.81,10.0,East,16.1,26.5,0.00,Rain,Light Rain,80,2013-01-02 01:54:00
5:54 PM,37.0,34.0,89,29.78,7.0,East,18.4,31.1,0.02,Rain,Light Rain,90,2013-01-02 02:54:00
6:05 PM,37.4,33.8,87,29.77,8.0,East,12.7,25.3,0.01,Rain,Light Rain,100,2013-01-02 03:05:00
6:21 PM,37.4,33.8,87,29.78,10.0,ESE,19.6,32.2,0.02,Rain,Light Rain,110,2013-01-02 03:21:00
6:54 PM,37.9,34.0,86,29.77,7.0,ESE,18.4,35.7,0.05,Rain,Light Rain,110,2013-01-02 03:54:00
7:54 PM,37.9,35.1,89,29.75,5.0,ESE,18.4,36.8,0.07,Rain,Light Rain,110,2013-01-02 04:54:00
8:54 PM,37.0,34.0,89,29.75,6.0,East,24.2,34.5,0.08,Rain,Light Rain,100,2013-01-02 05:54:00
9:37 PM,37.4,33.8,87,29.75,7.0,ESE,21.9,38.0,0.04,Rain,Light Rain,110,2013-01-02 06:37:00
9:54 PM,37.0,34.0,89,29.77,9.0,East,20.7,34.5,0.04,Rain,Light Rain,100,2013-01-02 06:54:00
10:15 PM,37.4,33.8,87,29.76,10.0,East,18.4,32.2,0.00,Rain,Light Rain,100,2013-01-02 07:15:00
10:38 PM,37.4,33.8,87,29.76,10.0,East,18.4,35.7,0.00,Rain,Light Rain,100,2013-01-02 07:38:00
10:54 PM,37.0,35.1,93,29.77,10.0,East,18.4,35.7,0.00,Rain,Light Rain,80,2013-01-02 07:54:00
11:54 PM,37.0,35.1,93,29.80,10.0,Variable,5.8,19.6,0.00,,Overcast,0,2013-01-02 08:54:00